Content
SEND FEEDBACK

Daily
Averages
Monthly
Summary
Canada

MONTREAL, QUEBEC


Home > North America > Canada > Quebec
Elevation: 35 meters     Latitude: 45 28N     Longitude: 073 45W

WEATHER
 
SELECT A DAY
Number of Records: 201,481;   Date Range: 1/1/95 - 10/22/14
 
SHARE

PRINT THIS DATA

[ ← Previous Day ]
WEATHER ALMANAC - 31 JANUARY, 2013
[ Next Day → ]
[ °F ]   °C
Weather ElementAverageHighLow
Temperature0.7 °C9 °C (5:00 am)-11 °C (11:00 pm)
Dewpoint-10.4 °C8 °C (4:00 am)-18.3 °C (7:00 pm)
Humidity71.6 %100 % (1:00 am)35 % (7:00 pm)
Wind Speed41.7 km/h68.6 km/h (2:00 pm)
Wind Gust85.1 km/h (10:00 am)
Weather ElementAverage
Visibility16.4 km
Wind DirectionWSW (231.3 °)

Weather ElementTotal
Precipitation---
Heating Degree Days19.3 (Base 18.3)
Averaged from 47 records on 31 January, 2013
WEATHER CONDITIONS BREAKOUT
WIND DIRECTION BREAKOUT
WEATHER BY HOUR - 31 JANUARY, 2013
[ °F ]   °C
Local TimeTemperatureDewpointHumidityBarometerVisibilityWind DirectionWind SpeedGust SpeedPrecipitationEventsConditions
12:38 AM7 °C-17.8 °C8 kmSSE (160°)14.8 km/hRainLight Rain
1:00 AM6.1 °C6.1 °C98 %985.8 hPa8 kmSSE (150°)18.5 km/hRainLight Rain
1:00 AM6 °C6 °C100 %985.8 hPa8 kmSSE (150°)18.5 km/hRainLight Rain
2:00 AM8 °C7 °C93 %983.7 hPa9.7 kmSE (140°)20.4 km/hRainLight Rain
2:45 AM7 °C-17.8 °C4.8 kmSE (130°)13 km/hRainLight Rain
3:00 AM7 °C7 °C100 %981.4 hPa2.4 kmSE (130°)9.3 km/hRainLight Rain
3:35 AM8 °C-17.8 °C6.4 kmSSE (150°)20.4 km/hRainLight Rain
4:00 AM8 °C8 °C100 %978 hPa9.7 kmSE (140°)24.1 km/hRainLight Rain
5:00 AM9 °C8 °C93 %975.6 hPa11.3 kmSSE (160°)33.3 km/hRainLight Rain
6:00 AM8 °C8 °C100 %975.3 hPa6.4 kmSouth (180°)29.6 km/h42.6 km/hRainLight Rain
6:28 AM9 °C-17.8 °C9.7 kmWSW (240°)29.6 km/h38.9 km/hRainLight Rain
6:38 AM9 °C-17.8 °C9.7 kmSW (230°)35.2 km/hRainLight Rain
7:00 AM6.7 °C4.4 °C83 %976.3 hPa11.3 kmSW (230°)50.1 km/hRainLight Rain
7:00 AM7 °C5 °C87 %976.3 hPa11.3 kmSW (230°)50.1 km/h61.2 km/hRainLight Rain
7:11 AM6 °C-17.8 °C11.3 kmSW (230°)48.1 km/h64.9 km/hRainLight Rain
8:00 AM4 °C2 °C87 %978.3 hPa24.1 kmSW (230°)53.8 km/h72.3 km/hRainLight Rain
8:24 AM4 °C-17.8 °C24.1 kmSW (230°)53.8 km/h76 km/hRainLight Rain
8:45 AM4 °C-17.8 °C24.1 kmWSW (240°)62.9 km/h83.4 km/hOvercast
9:00 AM4 °C1 °C81 %978.3 hPa24.1 kmWSW (240°)44.4 km/h79.7 km/hMostly Cloudy
10:00 AM4 °C-2 °C65 %980.7 hPa19.3 kmWSW (240°)48.1 km/h85.1 km/hOvercast
10:07 AM3 °C-17.8 °C19.3 kmWSW (250°)46.3 km/h64.9 km/hRainLight Rain Showers
10:09 AM3 °C-17.8 °C19.3 kmWest (260°)40.7 km/h64.9 km/hRain-SnowLight Rain Showers
10:27 AM2 °C-17.8 °C24.1 kmWest (260°)50.1 km/h72.3 km/hMostly Cloudy
11:00 AM2 °C-6 °C56 %982.4 hPa48.3 kmWSW (250°)62.9 km/h85.1 km/hMostly Cloudy
12:00 PM2 °C-5 °C60 %983.1 hPa24.1 kmWest (260°)53.8 km/h64.9 km/hOvercast
12:30 PM1 °C-17.8 °C24.1 kmWSW (240°)55.5 km/h66.6 km/hSnowLight Snow
1:00 PM1 °C-7 °C56 %984.4 hPa24.1 kmWSW (250°)50.1 km/h77.7 km/hSnowLight Snow
1:41 PM0 °C-17.8 °C24.1 kmWSW (240°)48.1 km/h79.7 km/hOvercast
2:00 PM0 °C-9 °C51 %985.8 hPa24.1 kmWSW (240°)68.6 km/h81.4 km/hOvercast
2:33 PM-1 °C-17.8 °C24.1 kmWest (270°)51.8 km/h74 km/hSnowLight Snow
3:00 PM-2 °C-7 °C69 %988.5 hPa24.1 kmWSW (240°)38.9 km/h57.5 km/hSnowLight Snow
4:00 PM-2 °C-10 °C55 %989.5 hPa19.3 kmWest (260°)50.1 km/h81.4 km/hSnowLight Snow
4:11 PM-4 °C-17.8 °C4 kmWest (270°)48.1 km/h68.6 km/hSnowLight Snow
4:21 PM-4 °C-17.8 °C2.4 kmWest (260°)40.7 km/h51.8 km/hSnowLight Snow
4:33 PM-5 °C-17.8 °C1.6 kmWest (270°)33.3 km/h55.5 km/hSnowLight Snow
4:44 PM-6 °C-17.8 °C3.2 kmWest (270°)38.9 km/h55.5 km/hSnowLight Snow
5:00 PM-6 °C-10 °C74 %991.5 hPa1.9 kmWest (270°)53.8 km/h70.3 km/hSnowLight Snow
5:13 PM-6 °C-17.8 °C3.2 kmWest (270°)50.1 km/h64.9 km/hSnowLight Snow
5:26 PM-6 °C-17.8 °C16.1 kmWest (260°)46.3 km/h76 km/hSnowLight Snow
5:49 PM-7 °C-17.8 °C24.1 kmWest (270°)53.8 km/h72.3 km/hMostly Cloudy
6:00 PM-7 °C-15 °C54 %993.6 hPa24.1 kmWest (260°)42.6 km/h72.3 km/hMostly Cloudy
7:00 PM-9 °C-18 °C49 %996.6 hPa24.1 kmWest (260°)51.8 km/h74 km/hMostly Cloudy
7:00 PM-9.4 °C-18.3 °C35 %996.6 hPa24.1 kmWest (270°)57.5 km/hPartly Cloudy
8:00 PM-10 °C-18 °C53 %997.6 hPa24.1 kmWest (280°)38.9 km/h61.2 km/hScattered Clouds
9:00 PM-10 °C-18 °C53 %998.6 hPa24.1 kmWest (270°)37 km/h57.5 km/hPartly Cloudy
10:00 PM-10 °C-18 °C53 %999.7 hPa24.1 kmWest (280°)33.3 km/h50.1 km/hPartly Cloudy
11:00 PM-11 °C-18 °C57 %1000.3 hPa24.1 kmWest (260°)35.2 km/h51.8 km/hPartly Cloudy
Hourly data recorded from CYUL, located 0 kilometers away from Montreal, Quebec







STORIES FROM OUR PARTNERS